OpenBCM V1.07b12 (Linux)

Packet Radio Mailbox

DB0FHN

[JN59NK Nuernberg]

 Login: GUEST





  
I6KZR  > KEPLER   28.12.02 16:59l 1460 Lines 39195 Bytes #999 (0) @ WW
BID : 14306_IK6WID
Read: DB0FHN GUEST
Subj: Old Istantrak Keplerians #361
Path: DB0FHN<DB0RGB<OK0PPL<RZ6HXA<IK1ZNW<IK2QCA<IK1MVX<IK5CKL<IW5CWB<I0TVL<
      I0NKU<IK8VRI<IW7BNO<IK6IHH<IK6WID
Sent: 021227/2059Z @:IK6WID.#AP.IMAR.ITA.EU #:14306 [MONTE URANO]  FBB7.00i
From: I6KZR@IK6WID.#AP.IMAR.ITA.EU
To  : KEPLER@WW


Satellite: OSCAR 7
Catalog number: 07530
Epoch time:      102359.94429598
Element set:     151 
Inclination:      101.7696 deg
RA of node:        43.2253 deg
Eccentricity:    0.0012273
Arg of perigee:   183.1765 deg
Mean anomaly:     176.9231 deg
Mean motion:   12.53562983 rev/day
Decay rate:   -2.9000E-007 rev/day^2
Epoch rev:           28634
Checksum:              316

Satellite: GOES 2
Catalog number: 10061
Epoch time:      102359.35983672
Element set:     32 
Inclination:       14.1180 deg
RA of node:        13.8737 deg
Eccentricity:    0.0014065
Arg of perigee:   196.4899 deg
Mean anomaly:     163.4904 deg
Mean motion:    0.99401889 rev/day
Decay rate:   -3.0500E-006 rev/day^2
Epoch rev:            3828
Checksum:              302

Satellite: GOES 3
Catalog number: 10953
Epoch time:      102360.08801110
Element set:     869 
Inclination:       13.3847 deg
RA of node:        17.6445 deg
Eccentricity:    0.0004400
Arg of perigee:   337.7007 deg
Mean anomaly:      22.3010 deg
Mean motion:    1.00277354 rev/day
Decay rate:   -8.6000E-007 rev/day^2
Epoch rev:            4295
Checksum:              250

Satellite: GOES 6
Catalog number: 14050
Epoch time:      102361.20537289
Element set:     407 
Inclination:       10.3329 deg
RA of node:        35.8606 deg
Eccentricity:    0.0004000
Arg of perigee:   332.7358 deg
Mean anomaly:      27.2428 deg
Mean motion:    1.00286086 rev/day
Decay rate:    6.6000E-007 rev/day^2
Epoch rev:           13010
Checksum:              245

Satellite: OSCAR 10
Catalog number: 14129
Epoch time:      102356.12292339
Element set:     907 
Inclination:       25.8271 deg
RA of node:       174.0668 deg
Eccentricity:    0.6049945
Arg of perigee:   312.5642 deg
Mean anomaly:      10.0639 deg
Mean motion:    2.05871554 rev/day
Decay rate:   -2.6699E-006 rev/day^2
Epoch rev:           11886
Checksum:              321

Satellite: OSCAR 11 (UoSA
Catalog number: 14781
Epoch time:      102360.85424547
Element set:     28 
Inclination:       98.1109 deg
RA of node:       329.4006 deg
Eccentricity:    0.0010411
Arg of perigee:    28.4993 deg
Mean anomaly:     331.6778 deg
Mean motion:   14.77820465 rev/day
Decay rate:    3.4069E-005 rev/day^2
Epoch rev:             830
Checksum:              304

Satellite: NOAA 10
Catalog number: 16969
Epoch time:      102360.91090936
Element set:     607 
Inclination:       98.7246 deg
RA of node:       350.1504 deg
Eccentricity:    0.0011711
Arg of perigee:   241.9277 deg
Mean anomaly:     118.0719 deg
Mean motion:   14.27040730 rev/day
Decay rate:    4.5100E-006 rev/day^2
Epoch rev:           84625
Checksum:              294

Satellite: GOES 7
Catalog number: 17561
Epoch time:      102355.38651376
Element set:     789 
Inclination:        7.4944 deg
RA of node:        55.8496 deg
Eccentricity:    0.0008079
Arg of perigee:   326.4312 deg
Mean anomaly:      34.0198 deg
Mean motion:    1.00298198 rev/day
Decay rate:    1.0200E-006 rev/day^2
Epoch rev:            4115
Checksum:              307

Satellite: COSMOS 1861
Catalog number: 18129
Epoch time:      102360.57199612
Element set:     176 
Inclination:       82.9245 deg
RA of node:       186.4812 deg
Eccentricity:    0.0012957
Arg of perigee:    22.2103 deg
Mean anomaly:     337.9608 deg
Mean motion:   13.72694825 rev/day
Decay rate:    1.1900E-006 rev/day^2
Epoch rev:           77710
Checksum:              326

Satellite: EUTELSAT 1-F4 
Catalog number: 18351
Epoch time:      102352.12522730
Element set:     23 
Inclination:        7.0733 deg
RA of node:        58.7527 deg
Eccentricity:    0.0004962
Arg of perigee:   184.4653 deg
Mean anomaly:     172.0391 deg
Mean motion:    0.96710043 rev/day
Decay rate:   -6.1999E-007 rev/day^2
Epoch rev:            4206
Checksum:              396

Satellite: NOAA 11
Catalog number: 19531
Epoch time:      102360.89493981
Element set:     445 
Inclination:       98.9084 deg
RA of node:        77.4370 deg
Eccentricity:    0.0011769
Arg of perigee:   358.9306 deg
Mean anomaly:       1.1839 deg
Mean motion:   14.14510759 rev/day
Decay rate:    4.5599E-006 rev/day^2
Epoch rev:           73521
Checksum:              343

Satellite: ASTRA 1A
Catalog number: 19688
Epoch time:      102356.82543404
Element set:     549 
Inclination:        1.2424 deg
RA of node:        96.2799 deg
Eccentricity:    0.0003229
Arg of perigee:   161.5585 deg
Mean anomaly:     135.7322 deg
Mean motion:    1.00273958 rev/day
Decay rate:    5.2000E-007 rev/day^2
Epoch rev:            3161
Checksum:              291

Satellite: OSCAR 14 (UOSA
Catalog number: 20437
Epoch time:      102360.73766778
Element set:     127 
Inclination:       98.2795 deg
RA of node:        41.9021 deg
Eccentricity:    0.0011331
Arg of perigee:     6.4819 deg
Mean anomaly:     353.6505 deg
Mean motion:   14.31218009 rev/day
Decay rate:    3.6599E-006 rev/day^2
Epoch rev:           67479
Checksum:              325

Satellite: OSCAR 15 (UOSA
Catalog number: 20438
Epoch time:      102361.55773986
Element set:     758 
Inclination:       98.2539 deg
RA of node:        32.0434 deg
Eccentricity:    0.0010652
Arg of perigee:    15.1442 deg
Mean anomaly:     345.0061 deg
Mean motion:   14.30182654 rev/day
Decay rate:    2.9099E-006 rev/day^2
Epoch rev:           67458
Checksum:              318

Satellite: OSCAR 16 (PACS
Catalog number: 20439
Epoch time:      102360.20214628
Element set:     829 
Inclination:       98.3262 deg
RA of node:        52.7549 deg
Eccentricity:    0.0011530
Arg of perigee:    14.4372 deg
Mean anomaly:     345.7135 deg
Mean motion:   14.31448273 rev/day
Decay rate:    4.8400E-006 rev/day^2
Epoch rev:           67475
Checksum:              297

Satellite: OSCAR 17 (DOVE
Catalog number: 20440
Epoch time:      102359.92204097
Element set:     723 
Inclination:       98.3447 deg
RA of node:        56.2502 deg
Eccentricity:    0.0011688
Arg of perigee:    13.3513 deg
Mean anomaly:     346.7976 deg
Mean motion:   14.31723206 rev/day
Decay rate:    5.1699E-006 rev/day^2
Epoch rev:           67478
Checksum:              324

Satellite: OSCAR 18 (WEBE
Catalog number: 20441
Epoch time:      102360.53554728
Element set:     972 
Inclination:       98.3431 deg
RA of node:        56.0869 deg
Eccentricity:    0.0012167
Arg of perigee:    12.8932 deg
Mean anomaly:     347.2561 deg
Mean motion:   14.31530524 rev/day
Decay rate:    4.6800E-006 rev/day^2
Epoch rev:           67485
Checksum:              310

Satellite: OSCAR 19 (LUSA
Catalog number: 20442
Epoch time:      102361.21898955
Element set:     926 
Inclination:       98.3552 deg
RA of node:        59.6701 deg
Eccentricity:    0.0012618
Arg of perigee:     9.2987 deg
Mean anomaly:     350.8426 deg
Mean motion:   14.31693071 rev/day
Decay rate:    4.4799E-006 rev/day^2
Epoch rev:           67500
Checksum:              339

Satellite: JAS 1B (FUJI 2
Catalog number: 20480
Epoch time:      102359.97437560
Element set:     457 
Inclination:       99.0403 deg
RA of node:       328.0133 deg
Eccentricity:    0.0541099
Arg of perigee:   127.4691 deg
Mean anomaly:     237.6897 deg
Mean motion:   12.83327147 rev/day
Decay rate:   -9.9999E-009 rev/day^2
Epoch rev:           60351
Checksum:              353

Satellite: HST
Catalog number: 20580
Epoch time:      102361.45672012
Element set:     278 
Inclination:       28.4693 deg
RA of node:        23.0452 deg
Eccentricity:    0.0004491
Arg of perigee:    72.1911 deg
Mean anomaly:      73.9963 deg
Mean motion:   14.97576946 rev/day
Decay rate:    3.2949E-005 rev/day^2
Epoch rev:           49466
Checksum:              323

Satellite: EUTELSAT 2-F1
Catalog number: 20777
Epoch time:      102360.72994659
Element set:     8 
Inclination:        3.3706 deg
RA of node:        85.0406 deg
Eccentricity:    0.0000558
Arg of perigee:   254.6768 deg
Mean anomaly:      92.8416 deg
Mean motion:    1.00385171 rev/day
Decay rate:   -1.0200E-006 rev/day^2
Epoch rev:            2555
Checksum:              288

Satellite: FENGYUN 1B
Catalog number: 20788
Epoch time:      102360.51509866
Element set:     843 
Inclination:       99.0192 deg
RA of node:       338.2424 deg
Eccentricity:    0.0015923
Arg of perigee:    20.1266 deg
Mean anomaly:     340.0524 deg
Mean motion:   14.02129022 rev/day
Decay rate:    5.2700E-006 rev/day^2
Epoch rev:           62996
Checksum:              286

Satellite: EUTELSAT 2-F2
Catalog number: 21056
Epoch time:      102359.88595078
Element set:     602 
Inclination:        2.5955 deg
RA of node:        88.4575 deg
Eccentricity:    0.0002311
Arg of perigee:   214.1245 deg
Mean anomaly:     158.9944 deg
Mean motion:    1.00267688 rev/day
Decay rate:    1.3200E-006 rev/day^2
Epoch rev:            3133
Checksum:              294

Satellite: INFORMATOR 1
Catalog number: 21087
Epoch time:      102359.97949370
Element set:     587 
Inclination:       82.9409 deg
RA of node:       357.8339 deg
Eccentricity:    0.0036932
Arg of perigee:    43.5246 deg
Mean anomaly:     316.8819 deg
Mean motion:   13.74920823 rev/day
Decay rate:    1.3300E-006 rev/day^2
Epoch rev:           59738
Checksum:              351

Satellite: COSMOS 2123
Catalog number: 21089
Epoch time:      102361.10564906
Element set:     478 
Inclination:       82.9240 deg
RA of node:       221.0430 deg
Eccentricity:    0.0030837
Arg of perigee:    74.5476 deg
Mean anomaly:     285.9088 deg
Mean motion:   13.74399034 rev/day
Decay rate:    1.6100E-006 rev/day^2
Epoch rev:           59644
Checksum:              314

